This demonstration page uses our WeatherBlox Daily Observations layout. Learn more.

Left ArrowRight Arrow

Hourly Observations for February 28, 2015

Temp ( °F °C ) Dew Point ( °F °C ) Humidity (%) Winds ( mph kmh ) Pressure ( in mb ) Visibility ( mi km ) Precip ( " mm )
12:53 am 00:53 Cloudy with Mist and Fog 22 -5.6 18 -7.8 85 85 E 9 15 30.23 1024 6 10 0.00 0.00
1:53 am 01:53 Cloudy with Haze 23 -5 18 -7.8 81 81 E 9 15 30.22 1023 4 6 0.00 0.00
2:53 am 02:53 Cloudy with Mist and Fog 23 -5 19 -7.2 85 85 E 8 13 30.22 1023 4 6 0.00 0.00
3:53 am 03:53 Cloudy with Haze 23 -5 18 -7.8 81 81 E 9 15 30.19 1023 4 6 0.00 0.00
4:53 am 04:53 Cloudy with Mist and Fog 23 -5 19 -7.2 85 85 E 10 17 30.19 1023 5 8 0.00 0.00
5:53 am 05:53 Cloudy with Haze 24 -4.4 19 -7.2 81 81 E 8 13 30.21 1023 6 10 0.00 0.00
6:53 am 06:53 Cloudy with Mist and Fog 24 -4.4 20 -6.7 84 84 E 7 11 30.22 1023 4 6 0.00 0.00
7:53 am 07:53 Cloudy with Mist and Fog 24 -4.4 20 -6.7 84 84 ESE 7 11 30.22 1023 3 5 0.00 0.00
8:53 am 08:53 Cloudy with Mist and Fog 24 -4.4 20 -6.7 84 84 ESE 7 11 30.23 1024 5 8 0.00 0.00
9:53 am 09:53 Cloudy 25 -3.9 21 -6.1 85 85 SE 8 13 30.25 1024 8 13 0.00 0.00
10:53 am 10:53 Cloudy 27 -2.8 22 -5.6 81 81 ESE 7 11 30.24 1024 10 16 0.00 0.00
11:53 am 11:53 Cloudy 28 -2.2 23 -5 81 81 ESE 7 11 30.23 1024 10 16 0.00 0.00
12:53 pm 12:53 Cloudy 29 -1.7 25 -3.9 85 85 SE 6 9 30.20 1023 10 16 0.00 0.00
1:53 pm 13:53 Cloudy 31 -0.6 25 -3.9 79 79 SSE 5 7 30.17 1022 10 16 0.00 0.00
2:53 pm 14:53 Cloudy 33 0.6 27 -2.8 78 78 ESE 6 9 30.13 1020 10 16 0.00 0.00
3:01 pm 15:01 Cloudy 33 0.6 27 -2.8 78 78 E 7 11 30.18 1022 10 16 0.00 0.00
3:53 pm 15:53 Cloudy 36 2.2 28 -2.2 73 73 SE 9 15 30.11 1020 10 16 0.00 0.00
4:53 pm 16:53 Cloudy 36 2.2 28 -2.2 73 73 SE 7 11 30.10 1019 10 16 0.00 0.00
5:53 pm 17:53 Cloudy 37 2.8 29 -1.7 73 73 SE 9 15 30.09 1019 10 16 0.00 0.00
6:53 pm 18:53 Cloudy 36 2.2 29 -1.7 76 76 ESE 10 17 30.11 1020 10 16 0.00 0.00
7:49 pm 19:49 Cloudy 36 2 30 -1 81 81 E 8 13 30.18 1022 8 13 0.00 0.00
7:53 pm 19:53 Cloudy 35 1.7 30 -1.1 82 82 E 8 13 30.13 1020 7 11 0.00 0.00
8:42 pm 20:42 Cloudy with Mist and Fog 36 2 30 -1 81 81 E 8 13 30.21 1023 4 6 0.00 0.00
8:53 pm 20:53 Cloudy with Mist and Fog 35 1.7 31 -0.6 85 85 E 8 13 30.16 1021 3 5 0.00 0.00
9:38 pm 21:38 Cloudy 34 1 30 -1 87 87 ESE 8 13 30.27 1025 7 11 0.00 0.00
9:53 pm 21:53 Cloudy 34 1.1 30 -1.1 85 85 E 6 9 30.18 1022 8 13 0.00 0.00
10:41 pm 22:41 Cloudy with Mist and Fog 34 1.1 31 -0.6 89 89 SE 5 7 30.27 1025 4 6 0.00 0.00
10:53 pm 22:53 Cloudy with Mist and Fog 34 1.1 31 -0.6 89 89 SE 7 11 30.19 1022 4 6 0.00 0.00
11:53 pm 23:53 Cloudy with Mist and Fog 35 1.7 31 -0.6 85 85 E 6 9 30.18 1022 4 6 0.00 0.00

Powered by AerisWeather